Location: Unspecified
(43.4680°N, 87.1740°E)
Time: 13:56:06
(UTC+00:00)

CZ-2D R/B - Pass Details

Date: 01 August 2021
Orbit: 553 x 637 km, 97.9° (Epoch: 17 September)

Event Time Altitude Azimuth Distance (km) Brightness Sun altitude
Rises 21:36:07 0° 14° (NNE) 2,774 7.9 -13.7°
Reaches altitude 10° 21:38:16 10° 17° (NNE) 1,883 7.0 -13.5°
Maximum altitude 21:42:20 73° 102° (ESE) 612 3.6 -12.9°
Drops below altitude 10° 21:46:28 10° 188° (S) 1,915 5.6 -12.3°
Enters shadow 21:46:31 10° 188° (S) 1,933 5.7 -12.3°
